TimeMDT,TemperatureF,Dew PointF,Humidity,Sea Level PressureIn,VisibilityMPH,Wind Direction,Wind SpeedMPH,Gust SpeedMPH,PrecipitationIn,Events,Conditions,WindDirDegrees,DateUTC
12:15 AM,37.4,19.4,48,29.83,10.0,South,6.9,-,N/A,,Scattered Clouds,180,2011-10-29 06:15:00
12:35 AM,39.2,19.4,45,29.82,10.0,South,9.2,-,N/A,,Clear,190,2011-10-29 06:35:00
12:55 AM,39.2,19.4,45,29.80,10.0,South,10.4,-,N/A,,Clear,190,2011-10-29 06:55:00
1:15 AM,39.2,19.4,45,29.78,10.0,South,10.4,-,N/A,,Clear,180,2011-10-29 07:15:00
1:56 AM,39.2,19.4,45,29.77,10.0,South,10.4,-,N/A,,Clear,190,2011-10-29 07:56:00
2:15 AM,37.4,19.4,48,29.76,10.0,South,11.5,-,N/A,,Clear,190,2011-10-29 08:15:00
2:35 AM,37.4,19.4,48,29.75,10.0,South,9.2,-,N/A,,Partly Cloudy,180,2011-10-29 08:35:00
2:55 AM,37.4,19.4,48,29.75,10.0,SSW,8.1,-,N/A,,Partly Cloudy,200,2011-10-29 08:55:00
3:15 AM,37.4,19.4,48,29.73,10.0,South,10.4,-,N/A,,Clear,190,2011-10-29 09:15:00
3:55 AM,37.4,19.4,48,29.73,10.0,SSW,9.2,-,N/A,,Overcast,210,2011-10-29 09:55:00
4:15 AM,37.4,19.4,48,29.71,10.0,South,11.5,-,N/A,,Overcast,190,2011-10-29 10:15:00
4:35 AM,37.4,19.4,48,29.72,10.0,SSW,10.4,-,N/A,,Overcast,200,2011-10-29 10:35:00
4:55 AM,39.2,19.4,45,29.72,10.0,SSW,10.4,-,N/A,,Overcast,200,2011-10-29 10:55:00
5:15 AM,39.2,19.4,45,29.71,10.0,SSW,10.4,-,N/A,,Overcast,200,2011-10-29 11:15:00
5:36 AM,37.4,19.4,48,29.71,10.0,SSW,10.4,-,N/A,,Overcast,200,2011-10-29 11:36:00
5:55 AM,39.2,19.4,45,29.73,10.0,SW,8.1,-,N/A,,Overcast,220,2011-10-29 11:55:00
6:15 AM,39.2,21.2,49,29.71,10.0,SSW,10.4,-,N/A,,Overcast,200,2011-10-29 12:15:00
6:35 AM,39.2,21.2,49,29.71,10.0,South,11.5,-,N/A,,Mostly Cloudy,190,2011-10-29 12:35:00
7:15 AM,39.2,21.2,49,29.69,10.0,South,9.2,-,N/A,,Overcast,180,2011-10-29 13:15:00
7:35 AM,39.2,21.2,49,29.70,10.0,South,9.2,-,N/A,,Overcast,180,2011-10-29 13:35:00
7:55 AM,37.4,21.2,52,29.71,10.0,South,6.9,-,N/A,,Overcast,180,2011-10-29 13:55:00
8:15 AM,39.2,23.0,52,29.71,10.0,SSW,4.6,-,N/A,,Overcast,200,2011-10-29 14:15:00
8:35 AM,41.0,23.0,49,29.71,10.0,Calm,Calm,-,N/A,,Overcast,0,2011-10-29 14:35:00
8:55 AM,51.8,28.4,41,29.71,10.0,West,10.4,-,N/A,,Mostly Cloudy,270,2011-10-29 14:55:00
9:15 AM,51.8,28.4,41,29.71,10.0,West,9.2,-,N/A,,Overcast,260,2011-10-29 15:15:00
9:35 AM,51.8,28.4,41,29.72,10.0,West,11.5,-,N/A,,Mostly Cloudy,260,2011-10-29 15:35:00
9:55 AM,51.8,28.4,41,29.72,10.0,West,9.2,-,N/A,,Mostly Cloudy,260,2011-10-29 15:55:00
10:15 AM,55.4,30.2,38,29.72,10.0,West,11.5,-,N/A,,Mostly Cloudy,270,2011-10-29 16:15:00
10:35 AM,55.4,28.4,36,29.73,10.0,WNW,23.0,32.2,N/A,,Mostly Cloudy,290,2011-10-29 16:35:00
10:55 AM,57.2,28.4,33,29.73,10.0,WNW,23.0,34.5,N/A,,Mostly Cloudy,290,2011-10-29 16:55:00
11:15 AM,55.4,28.4,36,29.74,10.0,WNW,24.2,32.2,N/A,,Mostly Cloudy,300,2011-10-29 17:15:00
11:36 AM,55.4,30.2,38,29.75,10.0,NW,27.6,34.5,N/A,,Overcast,310,2011-10-29 17:36:00
11:55 AM,53.6,28.4,38,29.76,10.0,WNW,26.5,34.5,N/A,,Overcast,290,2011-10-29 17:55:00
12:15 PM,53.6,30.2,41,29.76,10.0,West,24.2,32.2,N/A,,Mostly Cloudy,280,2011-10-29 18:15:00
12:35 PM,53.6,28.4,38,29.75,10.0,WNW,25.3,36.8,N/A,,Partly Cloudy,290,2011-10-29 18:35:00
12:55 PM,53.6,28.4,38,29.76,10.0,WNW,24.2,35.7,N/A,,Partly Cloudy,300,2011-10-29 18:55:00
1:15 PM,53.6,28.4,38,29.77,10.0,WNW,27.6,36.8,N/A,,Partly Cloudy,300,2011-10-29 19:15:00
1:35 PM,53.6,28.4,38,29.78,10.0,WNW,28.8,34.5,N/A,,Scattered Clouds,290,2011-10-29 19:35:00
1:55 PM,51.8,28.4,41,29.79,10.0,WNW,24.2,34.5,N/A,,Mostly Cloudy,290,2011-10-29 19:55:00
2:15 PM,51.8,28.4,41,29.80,10.0,WNW,29.9,41.4,N/A,,Overcast,290,2011-10-29 20:15:00
2:35 PM,48.2,32.0,54,29.81,10.0,WNW,29.9,35.7,N/A,,Overcast,290,2011-10-29 20:35:00
2:55 PM,48.2,32.0,54,29.82,10.0,WNW,32.2,39.1,N/A,,Mostly Cloudy,300,2011-10-29 20:55:00
3:15 PM,48.2,33.8,58,29.83,10.0,WNW,27.6,35.7,N/A,,Scattered Clouds,300,2011-10-29 21:15:00
3:35 PM,46.4,35.6,66,29.85,10.0,WNW,26.5,42.6,N/A,,Scattered Clouds,300,2011-10-29 21:35:00
3:55 PM,46.4,33.8,62,29.86,10.0,WNW,27.6,40.3,N/A,,Mostly Cloudy,290,2011-10-29 21:55:00
4:15 PM,46.4,33.8,62,29.86,10.0,NW,27.6,38.0,N/A,,Clear,310,2011-10-29 22:15:00
4:35 PM,46.4,32.0,57,29.87,10.0,NW,26.5,39.1,N/A,,Scattered Clouds,310,2011-10-29 22:35:00
4:55 PM,46.4,30.2,53,29.88,10.0,NW,26.5,29.9,N/A,,Partly Cloudy,310,2011-10-29 22:55:00
5:15 PM,46.4,30.2,53,29.88,10.0,NW,25.3,31.1,N/A,,Clear,310,2011-10-29 23:15:00
5:35 PM,46.4,30.2,53,29.90,10.0,WNW,19.6,26.5,N/A,,Clear,300,2011-10-29 23:35:00
5:55 PM,44.6,28.4,53,29.90,10.0,NW,19.6,27.6,N/A,,Clear,310,2011-10-29 23:55:00
6:15 PM,44.6,28.4,53,29.91,10.0,NW,19.6,27.6,N/A,,Clear,310,2011-10-30 00:15:00
6:35 PM,44.6,26.6,49,29.93,10.0,NW,12.7,23.0,N/A,,Clear,310,2011-10-30 00:35:00
6:55 PM,44.6,26.6,49,29.94,10.0,NW,15.0,20.7,N/A,,Clear,310,2011-10-30 00:55:00
7:15 PM,42.8,26.6,53,29.95,10.0,WNW,10.4,-,N/A,,Clear,300,2011-10-30 01:15:00
7:35 PM,42.8,24.8,49,29.95,10.0,WNW,12.7,-,N/A,,Clear,300,2011-10-30 01:35:00
7:55 PM,42.8,24.8,49,29.95,10.0,WNW,13.8,19.6,N/A,,Clear,300,2011-10-30 01:55:00
8:15 PM,42.8,24.8,49,29.95,10.0,WNW,18.4,21.9,N/A,,Clear,300,2011-10-30 02:15:00
8:35 PM,42.8,24.8,49,29.96,10.0,WNW,17.3,-,N/A,,Clear,300,2011-10-30 02:35:00
8:55 PM,41.0,24.8,53,29.97,10.0,WNW,11.5,-,N/A,,Clear,290,2011-10-30 02:55:00
9:35 PM,37.4,23.0,56,29.97,10.0,WNW,6.9,-,N/A,,Clear,290,2011-10-30 03:35:00
9:55 PM,35.6,21.2,56,29.98,10.0,Calm,Calm,-,N/A,,Clear,0,2011-10-30 03:55:00
10:15 PM,33.8,23.0,65,29.99,10.0,SSE,4.6,-,N/A,,Clear,150,2011-10-30 04:15:00
10:35 PM,35.6,24.8,65,29.99,10.0,South,4.6,-,N/A,,Clear,180,2011-10-30 04:35:00
10:55 PM,35.6,24.8,65,29.99,10.0,SW,4.6,-,N/A,,Clear,220,2011-10-30 04:55:00
11:15 PM,33.8,21.2,60,29.99,10.0,SW,6.9,-,N/A,,Clear,220,2011-10-30 05:15:00
11:35 PM,30.2,21.2,69,29.99,10.0,SSW,6.9,-,N/A,,Clear,210,2011-10-30 05:35:00
11:55 PM,30.2,21.2,69,29.98,10.0,SSW,8.1,-,N/A,,Clear,210,2011-10-30 05:55:00